SCP
1 1 1 1 1 1 1 1 2 3 4 4 5 7 9 10 10 8 6 6 7 9 9 7 5 4 4 4 3 3 4 4 5 6 7 7 7 7 7 7 7 7 6 5
1 1 1 1 1 1 1 3 4 5 5 5 5 6 9 10 9 8 6 6 7 7 7 6 5 5 4 3 3 3 3 4 6 7 7 7 7 6 6 6 7 7 6 5
1 1 1 0 1 1 2 4 5 5 4 5 4 6 9 10 8 6 6 6 6 6 5 5 6 6 4 3 3 3 3 5 6 7 7 7 7 7 6 6 6 6 5 4
1 1 1 1 1 1 2 3 4 3 4 4 5 6 9 9 7 5 4 5 5 5 5 5 5 5 4 3 3 3 4 5 6 6 7 8 8 8 7 6 5 5 4 4
1 1 1 1 1 1 2 3 5 6 6 5 6 7 8 7 5 4 4 5 5 4 4 4 4 4 4 3 3 4 6 7 6 5 6 8 8 8 7 5 5 4 4 3
1 1 1 1 1 2 3 5 7 9 9 7 6 6 6 6 5 5 5 6 6 5 4 3 3 4 4 4 5 6 7 6 5 4 4 6 6 6 5 5 5 4 4 4
1 1 1 1 1 1 2 4 6 8 9 8 6 5 5 5 5 6 5 6 5 5 4 3 3 3 4 4 5 6 6 5 4 3 3 4 4 3 4 4 5 5 5 5
1 1 1 2 2 2 2 2 3 5 6 6 5 5 4 5 6 6 6 5 4 4 4 4 4 3 3 4 4 4 4 3 3 3 3 3 3 3 3 4 5 5 5 5
1 2 2 2 2 1 1 1 2 3 4 4 3 3 4 6 8 7 6 5 4 4 4 4 4 4 3 3 3 3 3 4 4 4 4 4 4 4 4 4 4 4 4 4
1 2 2 2 1 1 1 1 1 2 2 2 2 2 5 9 9 8 6 4 4 4 4 4 4 3 3 3 2 3 3 4 5 5 4 4 4 4 4 4 3 3 2 2
1 1 1 1 1 1 1 1 1 1 1 1 1 3 8 12 11 8 5 4 4 4 4 4 3 3 3 2 2 2 3 3 4 4 3 3 3 2 2 2 2 1 1 1
1 1 1 1 1 1 1 1 1 0 1 1 1 4 11 14 11 8 5 4 4 4 3 3 3 3 2 2 2 2 3 3 3 3 3 2 2 1 1 1 0 0 0 0
1 1 1 1 1 1 1 1 1 1 1 1 1 6 12 14 11 7 5 4 3 3 3 3 3 3 2 2 3 3 2 2 2 2 2 2 1 1 1 1 0 0 0 0
0 0 0 1 1 1 1 1 1 1 1 1 2 6 12 13 9 6 4 3 3 3 2 2 3 3 2 2 3 2 2 1 1 1 1 1 1 1 1 1 1 1 0 0
0 0 0 0 0 0 0 0 0 0 1 1 2 6 10 9 6 4 3 3 3 2 2 2 3 3 3 2 2 2 2 1 1 1 1 1 1 1 1 1 1 1 1 1
0 0 0 0 0 0 0 0 0 0 0 0 2 4 6 5 4 3 3 3 3 3 3 3 3 3 3 2 2 2 1 1 1 1 0 0 0 0 0 0 1 1 1 1
0 0 0 0 0 0 0 0 0 0 0 0 1 2 3 3 3 2 2 2 3 3 3 3 4 3 3 2 2 1 1 1 0 0 0 0 0 0 0 0 0 0 0 0
0 0 0 0 0 0 0 0 0 0 0 0 1 1 1 1 1 1 2 2 2 3 3 3 3 3 2 2 1 1 1 0 0 0 0 0 0 0 0 0 0 0 0 0
0 0 0 0 0 0 0 0 0 0 0 1 1 1 1 1 1 1 1 1 1 2 2 3 2 2 2 2 1 0 0 0 0 0 0 0 0 1 1 0 0 0 0 0
0 0 0 0 0 0 0 0 0 0 0 1 1 2 1 1 1 1 1 1 1 1 2 2 2 2 2 2 1 0 0 0 0 0 0 0 1 1 1 1 1 1 1 1
0 0 0 0 0 0 0 0 0 0 0 1 2 2 1 1 1 1 1 1 1 1 1 1 2 2 2 1 1 0 0 1 1 1 1 1 1 1 1 1 1 1 1 0
0 0 0 0 0 0 0 0 0 0 1 1 2 2 1 1 1 1 2 1 1 1 0 1 1 2 1 1 1 1 1 1 1 1 1 1 1 1 1 1 1 1 1 1
0 0 0 0 0 0 0 0 0 0 1 2 2 2 1 1 1 1 1 1 1 0 0 0 0 1 1 1 1 1 1 1 1 1 1 0 0 1 1 1 1 1 1 1
0 0 0 0 0 0 0 0 0 0 1 2 2 2 1 1 2 1 1 1 0 0 0 0 0 0 0 1 1 1 1 1 1 0 0 0 0 1 1 2 1 1 1 1
0 0 0 0 0 0 0 0 1 1 2 2 2 1 1 2 2 2 1 1 0 0 0 0 0 0 0 1 1 1 1 1 1 1 0 0 0 0 1 2 1 1 1 1
0 0 0 0 0 0 0 1 1 2 2 2 2 2 2 2 2 2 1 1 1 0 0 0 0 0 0 1 1 1 1 1 1 1 1 0 0 1 1 2 1 1 1 1
0 0 0 0 0 0 1 1 2 2 2 1 2 2 3 3 2 1 1 1 1 0 0 0 0 1 1 1 1 1 1 1 1 1 1 0 1 1 2 1 1 1 1 1
Wind_Speed
12 12 10 11 11 11 11 10 10 7 5 1 2 3 5 5 4 5 5 4 4 4 3 2 2 3 2 3 3 3 3 3 3 3 3 3 2 2 2 1 1 1 1 1
12 11 10 11 11 9 9 8 7 5 2 2 3 4 5 5 4 3 4 4 3 4 4 3 1 1 1 2 2 2 2 2 2 2 3 3 2 2 1 1 0 0 1 1
10 11 10 9 8 6 4 4 3 2 1 1 3 5 4 4 3 2 2 3 3 2 3 2 2 1 2 2 2 2 2 2 3 3 3 3 3 2 2 1 1 1 1 1
8 8 8 4 3 3 3 4 5 3 3 3 4 5 5 5 4 3 3 3 2 2 2 2 2 2 1 2 2 2 2 1 2 2 2 2 2 2 2 2 2 2 1 2
7 7 6 2 4 4 3 2 6 4 3 4 5 6 5 5 4 3 3 3 3 2 2 3 2 2 0 1 2 2 2 1 2 2 1 2 2 2 2 1 2 2 2 2
8 7 5 4 8 8 3 1 7 7 5 3 1 1 2 4 4 4 4 4 4 3 3 3 2 1 0 1 1 1 1 1 1 1 1 1 1 1 1 1 2 3 2 2
8 6 1 7 9 7 3 3 6 6 5 4 3 3 3 4 4 4 5 5 4 4 3 2 2 2 1 1 1 1 1 1 1 1 1 1 1 1 1 2 2 2 2 2
5 5 1 8 5 5 4 5 6 6 5 6 6 5 5 5 5 5 5 5 5 4 3 3 3 2 1 2 2 2 2 2 2 1 1 0 1 1 1 2 2 2 2 2
3 2 5 6 6 5 4 4 5 5 6 6 6 5 5 6 5 5 5 4 4 4 4 3 3 2 1 2 2 2 2 2 2 1 1 0 1 1 2 2 2 2 2 2
1 3 4 5 6 6 5 5 5 6 6 6 5 5 5 4 4 4 4 4 4 4 3 3 3 2 2 2 2 2 2 2 1 1 1 1 0 1 1 1 1 1 1 2
1 1 2 3 4 5 4 4 5 5 5 5 4 4 4 3 3 3 3 3 3 3 2 2 2 2 3 2 2 2 1 1 1 1 1 1 1 1 1 1 1 1 1 2
2 2 1 2 2 2 3 4 4 3 3 4 4 3 3 3 3 2 2 2 2 2 2 2 2 2 2 2 2 2 1 1 2 2 1 1 1 1 3 2 2 1 0 1
1 2 1 2 3 3 2 2 3 3 3 3 3 3 2 2 2 2 1 2 2 1 1 2 2 2 2 2 1 1 1 1 1 1 1 2 2 1 1 2 2 1 2 2
2 1 1 1 2 2 2 2 2 3 3 2 2 2 2 2 2 2 1 1 1 1 1 1 1 1 1 1 0 0 1 1 1 1 1 2 2 2 2 1 1 1 2 3
2 1 1 1 1 1 1 1 1 2 2 3 2 2 2 2 2 1 1 0 0 0 1 1 1 1 1 1 1 1 1 1 1 2 1 1 2 2 3 2 2 1 1 1
1 1 1 1 2 2 2 2 2 3 3 3 3 2 3 3 2 2 2 1 1 1 2 2 2 1 2 2 2 1 1 2 2 2 2 2 2 2 2 2 2 2 1 1
1 1 2 2 2 2 3 2 2 3 3 4 3 3 3 3 3 2 2 2 2 2 2 2 3 3 2 3 3 2 1 1 2 2 2 2 2 2 2 2 2 2 2 2
1 1 1 2 3 3 3 3 3 3 3 5 5 4 3 4 3 2 2 1 1 1 1 2 3 2 3 3 3 3 3 2 1 2 2 2 3 2 2 2 2 3 2 1
1 2 2 3 3 3 3 3 3 3 3 4 4 4 4 4 4 3 2 2 1 1 1 2 1 2 3 3 4 3 4 3 2 2 2 2 3 3 2 2 2 2 3 2
1 1 3 3 4 4 3 3 3 3 3 4 4 4 4 3 3 3 2 2 2 2 1 1 1 2 2 2 4 4 4 4 4 3 2 3 3 3 3 3 2 2 2 2
2 2 3 3 3 4 4 4 3 3 3 3 3 3 3 3 3 2 2 2 2 2 2 1 2 2 2 4 6 5 4 3 4 4 3 3 3 3 3 3 3 3 3 2
3 3 3 3 3 4 4 4 3 3 3 3 3 3 3 3 3 2 2 2 1 1 2 2 1 2 3 6 5 5 4 3 3 3 3 3 3 3 3 3 3 3 3 3
3 4 4 3 3 4 4 4 4 3 3 3 3 3 3 3 3 3 2 2 2 1 3 2 0 1 3 5 5 4 4 4 4 4 3 4 3 3 3 3 3 3 3 3
3 3 3 3 3 3 3 4 4 3 3 3 3 3 3 3 3 3 2 1 2 2 3 1 3 3 4 5 4 3 3 4 4 4 4 4 4 3 3 3 4 4 4 4
2 2 3 3 3 3 2 3 3 3 3 2 2 2 3 2 3 2 2 2 3 4 4 3 5 6 5 5 4 3 3 3 4 5 4 4 4 4 3 3 3 4 4 4
2 2 2 2 3 3 3 3 3 2 3 2 2 2 2 2 2 2 2 3 3 4 4 3 3 4 4 4 3 3 3 3 3 4 4 4 5 5 4 4 5 4 4 4
2 2 2 2 2 2 2 2 2 3 3 3 3 3 3 3 3 3 3 3 3 3 3 2 2 2 3 3 2 2 3 3 4 4 4 4 5 5 5 5 4 4 4 4
Wind_Direction
273 282 278 269 270 274 270 263 260 251 237 243 93 99 109 125 131 135 139 139 131 129 116 113 118 138 149 152 146 149 166 169 172 175 173 167 164 166 172 208 212 188 211 234
274 277 281 276 271 265 267 267 257 250 249 64 63 71 80 107 119 129 142 139 125 130 133 123 109 160 160 162 147 146 175 171 159 160 169 165 160 158 149 127 29 18 249 257
272 274 274 270 285 279 290 325 310 319 326 66 42 60 68 94 101 93 99 103 100 112 115 111 111 154 160 146 150 155 176 171 169 173 170 167 170 164 169 175 205 237 258 242
270 275 259 254 306 333 360 16 8 23 47 61 77 77 69 67 60 51 60 69 85 94 95 91 81 67 120 154 163 164 165 162 169 177 172 171 172 170 185 194 208 223 232 241
264 257 254 258 341 317 281 10 11 11 44 76 97 102 68 56 55 49 53 57 57 78 96 92 81 65 43 177 173 171 164 176 182 186 185 179 177 182 191 205 222 223 228 223
255 262 267 360 357 332 292 145 21 22 23 35 57 136 75 55 51 55 51 55 57 59 77 79 68 64 353 99 149 183 184 185 169 175 185 196 179 179 194 221 223 224 224 223
255 257 268 359 345 330 308 31 12 14 19 30 28 58 75 69 59 55 56 55 58 62 65 64 58 56 25 43 44 27 42 59 73 121 185 195 156 170 204 243 249 241 226 225
269 257 317 4 3 26 34 19 7 12 35 54 63 66 74 79 72 59 51 49 50 53 54 54 53 52 34 27 27 38 45 42 45 56 283 178 169 220 227 238 249 249 239 238
3 53 63 38 42 49 43 29 17 21 40 56 67 61 62 74 72 62 52 45 44 50 57 58 52 46 36 31 31 45 43 40 41 19 356 277 206 231 240 239 243 249 257 262
25 71 55 40 36 31 31 37 38 41 43 47 50 56 58 63 67 61 52 44 38 44 57 54 47 29 33 49 58 60 49 41 23 7 338 326 294 254 257 266 271 287 293 289
328 35 23 27 20 15 25 46 44 44 39 37 39 44 54 57 59 54 44 35 34 50 58 52 46 30 25 41 55 61 50 16 340 322 334 353 329 335 314 360 312 267 300 313
324 7 340 331 353 2 26 33 24 27 27 24 34 29 53 56 61 62 45 34 38 47 44 46 42 35 34 43 45 53 32 347 328 329 343 326 318 357 15 13 49 105 175 276
345 354 321 317 347 12 20 27 22 15 13 16 20 13 35 41 53 51 56 44 57 61 52 53 50 47 35 36 48 46 356 316 310 321 332 312 303 302 326 1 25 357 281 263
36 56 292 303 332 358 344 349 18 12 7 357 2 14 32 15 14 7 15 82 93 84 87 90 79 62 29 29 103 186 268 276 294 300 300 300 313 317 309 310 320 327 284 250
7 3 332 338 330 326 317 332 349 353 358 3 15 10 16 358 356 6 2 288 116 94 51 30 43 35 15 9 329 260 261 280 283 294 295 296 311 308 308 313 316 322 341 303
359 31 356 343 347 348 349 341 343 344 345 354 0 352 356 348 344 342 344 339 22 21 16 26 29 21 355 348 321 279 239 255 250 271 288 290 290 297 310 324 329 337 338 351
338 331 317 307 312 321 314 317 337 343 336 328 337 343 342 333 322 324 341 358 10 12 20 29 18 8 358 351 325 304 281 258 251 271 283 298 300 301 311 320 327 333 332 347
273 304 323 322 320 313 314 327 338 333 325 325 328 336 337 333 323 324 334 346 359 359 23 38 32 358 341 345 328 310 299 287 279 291 301 308 305 298 297 298 302 309 304 283
20 1 337 320 309 302 303 311 321 325 325 326 329 335 331 334 336 330 335 329 304 304 28 47 35 329 323 350 335 302 301 302 295 286 295 288 286 298 304 298 300 309 317 325
336 315 309 307 308 317 323 323 321 323 326 324 320 321 329 333 331 332 341 330 329 345 347 1 286 287 301 350 324 296 298 303 304 299 296 297 299 306 306 303 299 304 315 325
321 309 304 308 321 325 328 326 316 310 310 310 310 312 315 320 323 325 315 309 2 348 313 263 263 301 328 330 298 292 299 308 305 300 298 302 311 318 322 327 324 320 318 320
331 326 325 331 326 325 328 323 310 301 303 301 299 304 304 304 302 299 298 302 309 329 297 287 321 10 338 311 295 298 306 312 307 305 307 306 306 308 313 322 325 321 317 318
331 328 333 330 320 313 308 307 309 306 300 296 298 302 298 292 289 286 288 299 311 318 295 306 2 312 305 295 299 302 312 316 311 306 305 303 303 307 308 311 313 314 313 311
305 306 308 307 309 301 301 301 301 297 291 282 272 269 272 269 262 264 277 235 260 268 284 262 204 240 261 273 283 294 308 312 315 313 313 312 305 300 303 306 306 309 312 316
285 295 298 292 291 290 287 282 277 276 281 285 281 270 269 274 276 279 277 260 256 260 261 225 218 226 245 268 280 294 308 323 325 319 314 313 311 308 303 304 305 310 312 315
267 266 278 283 289 290 287 291 300 310 307 299 299 307 304 298 295 287 270 258 264 269 273 262 237 228 253 270 281 300 307 302 294 293 303 309 311 313 313 313 309 306 310 312
244 245 245 261 270 277 289 297 311 318 320 325 328 325 317 322 325 316 313 303 299 294 289 285 279 271 277 287 307 321 317 317 314 314 314 312 311 313 312 309 308 308 307 306